Wind_Speed
6 5 5 4 3 3 3 4 5 5 5 6 7 7 6 3 3 4 5 5 4 4 2 3 4 8 5 4 5 2 4 2 5 6 2 4 3 2 1 5 1 1 4 1 26
6 6 5 5 4 4 4 4 4 4 5 5 6 7 5 2 5 8 7 6 4 2 3 5 4 6 4 4 4 5 3 5 3 3 4 5 3 7 3 2 2 1 0 10 28
6 6 6 5 5 4 4 4 4 4 4 5 6 6 5 3 3 3 9 7 4 3 5 4 3 3 4 4 5 2 3 3 1 1 5 6 3 4 7 3 7 8 7 17 24
6 6 6 6 7 6 5 5 5 4 4 4 5 5 3 2 1 4 8 5 4 3 4 4 4 3 3 3 2 4 3 2 1 3 4 5 6 3 6 3 1 7 18 19 17
6 6 6 7 7 7 7 6 5 4 3 4 4 4 2 5 1 7 5 2 3 3 4 2 3 2 3 2 2 4 1 3 2 4 2 7 3 5 7 2 4 15 15 14 18
6 6 7 8 8 7 7 6 3 3 2 3 3 2 2 3 2 7 7 3 4 2 3 4 3 3 5 3 3 2 3 2 1 2 3 3 2 1 3 5 7 10 11 12 18
7 7 8 8 9 8 8 4 2 1 1 1 1 2 4 4 2 4 9 9 6 3 3 3 6 4 4 4 4 4 2 1 3 2 1 2 5 8 4 7 9 10 8 8 17
8 8 9 10 10 10 7 3 1 1 1 2 2 2 2 2 2 3 4 8 8 10 11 9 10 7 4 3 5 3 4 4 2 4 1 3 8 3 6 10 10 10 9 8 13
10 10 10 11 12 11 6 0 3 3 4 4 2 3 2 1 2 2 5 4 5 7 7 7 6 4 4 3 4 6 1 2 5 6 2 4 7 2 5 8 9 10 10 9 8
12 11 10 11 12 9 2 4 5 5 5 5 3 4 2 0 2 2 2 4 5 3 4 7 5 4 3 4 1 3 4 3 5 3 3 4 15 7 7 9 12 10 9 10 10
13 11 10 10 12 8 3 5 3 4 4 1 1 3 1 2 2 5 4 2 3 8 3 3 5 0 3 4 3 2 2 4 4 0 3 7 13 15 10 8 10 10 10 12 14
13 12 8 9 9 2 3 4 2 1 4 2 1 3 2 3 3 4 3 3 3 2 1 6 1 1 1 1 0 1 3 5 5 1 4 7 18 15 8 9 14 16 13 14 9
11 11 6 7 1 4 7 4 2 1 4 2 0 2 2 3 2 1 3 1 3 2 2 3 1 1 2 3 3 2 2 2 4 6 2 8 7 4 1 3 6 9 9 9 14
7 7 4 3 3 3 3 3 2 2 4 2 1 1 2 4 2 1 2 2 3 2 4 1 2 1 2 1 3 3 0 2 4 5 3 5 5 6 4 6 7 9 11 14 12
6 4 3 2 4 4 1 1 3 1 1 3 2 1 2 5 3 3 3 3 4 3 4 2 1 1 1 1 1 4 1 1 1 2 3 4 2 8 4 5 5 9 12 13 13
3 5 3 3 4 3 1 3 2 5 4 3 2 3 4 2 1 1 2 5 1 3 3 0 1 1 1 2 1 2 1 5 4 2 2 3 3 6 2 2 5 3 4 9 11
2 5 4 4 4 2 3 3 4 3 2 3 4 4 3 3 1 1 1 1 4 3 1 2 1 1 1 1 2 5 5 4 5 4 4 2 1 10 5 6 5 7 9 7 8
4 4 4 4 5 3 4 4 2 2 5 2 3 3 5 7 2 2 2 2 3 4 3 2 4 3 1 1 3 2 4 4 3 2 5 2 6 5 5 5 6 6 7 7 6
3 5 3 4 7 3 5 2 6 6 5 7 3 3 2 1 2 2 4 4 6 9 6 4 3 1 3 1 2 1 1 3 5 2 2 4 8 10 4 4 3 7 6 7 7
6 4 3 5 9 3 4 5 4 3 5 3 5 4 6 4 4 3 4 3 3 7 1 4 1 2 1 2 4 1 3 3 3 1 5 5 6 5 3 4 4 3 5 8 7
5 3 2 8 5 4 4 7 4 5 4 5 6 4 4 6 7 5 5 3 4 4 3 4 3 1 0 5 8 2 1 5 3 3 4 3 6 7 7 3 3 5 6 7 8
4 3 3 9 3 1 4 5 3 3 2 2 5 4 7 6 6 4 7 5 7 8 7 5 4 4 6 1 2 3 5 6 5 4 1 4 7 5 8 7 5 8 8 7 7
4 2 2 2 4 3 3 4 3 3 4 5 6 4 4 7 2 6 4 1 4 6 7 6 1 2 4 2 2 4 5 5 5 3 7 5 6 1 4 6 7 8 9 9 8
3 2 3 3 1 5 4 4 4 4 3 4 4 4 4 4 4 2 4 1 2 3 3 5 4 7 7 5 5 4 5 6 6 4 5 9 19 8 11 9 9 9 9 10 9
2 4 2 4 4 4 3 3 5 5 3 4 2 6 7 6 3 5 3 1 1 2 2 3 5 5 5 4 4 4 5 9 10 10 10 18 14 15 12 9 8 8 8 9 9
4 4 2 2 2 8 5 6 10 3 7 6 5 9 7 8 8 8 7 4 6 1 5 2 3 2 5 4 9 6 20 14 15 13 12 19 22 29 13 7 7 10 9 10 10
5 3 4 1 3 6 5 6 9 6 6 5 10 5 5 10 8 3 4 3 4 9 7 6 5 3 6 4 2 7 21 17 7 8 11 13 23 20 14 10 10 10 8 11 9
Wind_Direction
75 71 66 54 47 37 24 10 360 1 2 2 3 4 11 38 102 54 35 342 334 326 35 56 49 14 32 61 43 103 65 143 179 155 187 182 128 28 56 117 160 101 157 231 167
59 56 51 40 34 24 8 355 351 353 356 359 359 359 6 102 98 59 8 1 357 59 87 46 22 17 35 26 22 69 86 198 170 169 178 180 161 163 140 115 235 195 70 152 163
46 43 37 34 27 12 354 343 338 341 350 357 355 356 360 137 66 4 5 4 19 90 60 35 29 59 60 42 5 72 115 169 324 230 140 152 118 156 132 226 216 204 172 158 165
35 34 27 20 13 3 346 336 329 328 338 347 350 359 89 123 102 360 352 6 22 62 50 35 45 53 65 56 21 80 55 104 165 110 121 161 119 192 199 231 324 200 162 164 172
22 18 13 11 5 356 345 334 321 313 324 340 351 1 125 50 18 3 3 24 36 63 49 74 66 91 81 75 47 71 105 60 69 103 83 130 170 235 232 283 102 138 158 175 182
7 3 0 357 354 347 340 329 310 299 318 339 355 51 100 98 107 31 36 90 85 80 76 55 124 125 101 67 70 103 88 97 101 128 144 172 232 154 224 128 131 156 181 191 190
348 350 350 349 344 340 333 323 290 264 294 340 42 107 66 180 96 29 41 57 61 118 106 61 135 82 130 110 157 135 84 335 187 197 172 134 267 235 167 149 167 191 200 206 211
334 335 340 341 339 337 332 312 205 169 140 125 94 93 134 116 94 45 43 68 76 91 94 79 100 97 56 110 31 49 50 17 185 148 10 99 273 276 164 155 192 204 213 221 228
315 321 330 335 334 334 335 41 137 126 124 119 92 87 117 111 96 40 31 71 73 79 81 83 69 82 34 63 21 12 313 326 324 204 128 161 265 254 172 185 205 208 212 219 237
299 306 317 327 330 329 340 133 121 112 117 97 75 50 10 169 83 67 59 58 66 62 27 42 50 74 43 63 277 312 342 296 252 221 209 221 262 248 202 195 215 216 220 220 225
289 292 304 321 329 329 146 131 43 3 52 120 184 135 138 120 71 49 26 68 37 52 60 13 63 118 233 182 164 198 242 281 264 237 235 233 260 264 205 208 223 225 227 230 229
280 282 292 316 333 11 131 85 131 193 111 32 123 81 122 139 79 1 11 79 59 86 62 21 70 240 208 135 29 326 315 306 288 135 197 296 278 261 198 216 211 214 222 228 232
269 269 278 310 295 77 101 101 86 93 95 334 201 139 172 133 119 292 40 97 91 70 38 144 293 339 76 44 37 303 248 312 257 316 229 311 300 330 115 221 208 225 225 225 224
274 250 260 300 161 134 83 73 110 122 76 256 216 295 80 119 49 343 37 121 34 143 141 208 321 114 90 69 122 308 208 307 317 25 298 11 283 312 332 293 225 232 220 228 220
279 217 231 164 130 129 103 67 134 75 33 153 167 122 39 129 140 355 10 38 165 156 99 266 39 28 348 205 175 229 46 42 24 58 14 353 45 273 348 323 291 241 228 231 225
265 194 189 161 138 124 76 140 106 50 256 182 124 148 100 46 29 36 55 50 90 106 31 255 358 68 146 88 30 86 99 43 57 79 23 288 114 289 275 249 300 308 284 236 218
237 198 182 155 146 93 130 81 53 148 31 198 182 157 128 167 178 145 135 138 159 105 286 351 304 336 93 112 29 61 47 337 351 11 225 338 46 246 265 259 239 289 294 294 240
216 207 203 177 160 106 127 55 201 190 202 126 113 92 167 162 206 154 106 275 213 109 119 156 318 167 17 153 162 88 131 146 271 284 283 316 241 247 227 286 267 261 265 288 282
207 184 177 179 192 149 79 102 212 203 170 143 90 112 251 217 147 144 204 219 214 178 159 145 277 59 44 46 57 166 92 165 108 18 14 265 287 303 299 352 282 273 295 299 290
158 151 128 140 150 137 80 235 235 207 130 121 155 147 178 202 162 181 190 212 233 187 56 198 44 3 52 77 31 94 157 42 14 288 284 283 276 239 306 342 4 13 299 297 295
136 93 140 150 139 57 182 226 258 237 165 150 183 147 188 179 174 200 211 249 178 133 156 144 118 242 56 193 181 115 214 54 117 139 205 301 267 214 217 223 242 250 251 267 292
122 114 160 161 81 26 176 203 225 217 162 152 129 134 180 169 179 229 220 233 170 152 162 191 138 204 214 45 158 176 184 153 125 217 165 155 270 241 227 248 270 273 270 270 277
117 131 70 152 171 218 266 274 242 175 210 183 180 180 171 169 208 202 206 36 156 157 162 184 193 351 324 18 346 218 195 147 116 104 198 147 257 316 258 269 258 264 283 283 294
107 114 332 54 61 150 160 223 224 204 203 174 165 113 124 178 216 204 229 167 161 183 128 125 166 181 207 201 131 216 199 186 158 146 187 224 268 273 283 266 286 279 263 274 280
82 224 180 206 246 169 180 180 187 207 219 183 213 198 166 179 184 211 202 149 34 168 76 158 226 197 255 203 189 243 199 187 204 216 200 260 244 260 252 249 244 255 275 283 277
146 150 28 159 103 157 178 232 187 202 164 226 197 201 193 183 185 196 161 182 203 99 153 20 268 155 282 232 206 224 263 217 220 241 252 264 271 271 272 265 260 256 270 265 270
171 135 119 138 126 131 219 202 205 168 224 189 197 148 194 225 208 181 171 167 160 159 173 158 152 106 263 322 359 277 243 235 196 215 220 233 251 276 278 243 255 261 241 252 256
Height
830 829 829 829 828 828 827 827 826 826 825 824 823 822 821 821 821 822 823 824 822 821 821 821 822 821 821 826 828 831 858 868 862 864 858 859 861 864 866 869 870 871 872 872 875
831 830 830 829 828 828 827 827 826 826 825 825 824 822 821 821 822 823 825 823 822 821 822 822 823 823 830 831 835 845 862 858 853 853 859 859 858 865 867 869 869 871 872 872 875
832 831 830 829 828 827 827 826 826 825 825 825 824 823 822 822 823 826 825 824 823 823 823 824 825 825 833 834 843 847 860 854 853 852 855 860 862 864 868 871 866 866 869 872 875
832 832 830 830 829 828 827 826 826 825 825 824 824 823 822 823 841 826 825 825 824 824 824 825 826 832 841 843 843 851 853 852 854 854 856 861 863 865 866 858 858 859 863 869 872
833 832 830 830 829 827 826 825 825 825 824 824 824 823 823 827 829 826 825 824 825 825 825 826 830 835 844 845 846 850 855 854 855 855 857 859 860 862 863 858 859 860 865 867 869
832 831 830 829 828 827 826 825 824 824 824 824 823 823 824 834 827 826 825 824 824 825 826 826 829 832 843 848 850 854 855 856 855 856 857 859 860 859 855 860 863 863 865 866 867
833 831 830 829 827 825 824 824 823 823 824 824 823 823 824 829 827 827 827 826 825 825 826 827 828 831 840 849 851 854 856 856 857 856 858 857 864 860 855 860 864 865 866 867 867
833 831 830 828 826 825 823 822 822 823 823 823 824 824 829 827 828 828 827 827 827 827 827 829 830 836 843 849 854 857 862 867 857 859 859 860 863 847 857 860 863 866 867 868 867
831 831 829 828 825 824 822 822 822 822 823 823 824 824 832 828 829 829 829 829 828 829 830 830 832 846 850 859 867 870 870 864 860 861 860 863 859 849 859 860 861 864 864 865 865
830 829 828 826 825 823 822 822 823 823 824 824 825 831 829 831 829 829 829 829 829 830 832 835 846 856 864 866 880 870 870 866 868 858 862 865 859 852 856 860 856 859 861 861 860
828 827 826 826 824 823 823 823 827 829 825 827 829 829 829 829 830 830 830 830 831 836 849 847 858 862 855 857 857 860 864 868 862 856 861 863 855 842 848 857 857 858 858 856 853
825 825 825 824 824 823 823 824 826 828 832 826 827 827 828 829 833 832 831 836 838 850 847 857 862 853 851 853 856 858 864 869 861 856 862 858 842 832 841 842 841 843 849 848 849
824 823 824 823 823 823 823 825 825 826 835 831 828 828 829 830 836 835 833 837 843 848 852 859 854 849 851 857 860 861 865 866 868 862 860 863 842 827 832 835 837 839 838 841 842
822 822 822 822 826 823 825 825 825 826 854 841 834 831 830 830 838 834 834 838 844 850 854 855 851 852 855 858 863 865 862 863 865 872 875 866 865 834 829 831 835 836 837 833 834
820 821 822 822 822 823 826 825 825 826 868 839 835 829 830 836 838 837 835 835 847 849 853 855 855 855 857 858 858 863 861 865 866 875 877 870 879 841 832 817 814 821 827 826 826
819 820 821 822 822 824 824 825 826 855 863 843 834 836 838 838 840 838 838 838 842 849 852 855 854 856 856 859 859 861 864 874 882 885 882 870 875 850 829 812 815 811 816 820 821
818 819 821 822 823 824 824 826 854 863 836 844 842 838 841 845 844 842 845 850 858 863 862 858 858 858 857 860 861 865 877 886 875 885 874 873 878 842 818 816 816 816 814 812 814
817 819 820 821 822 823 825 840 853 839 843 833 837 842 845 844 845 846 850 857 852 856 873 869 868 860 859 860 862 869 873 890 871 888 885 877 870 829 816 814 815 814 813 810 809
817 818 819 821 822 824 831 855 844 836 829 835 836 843 847 842 844 848 854 857 850 852 860 869 863 863 863 863 866 871 877 877 891 900 899 878 855 823 812 808 810 811 809 808 805
816 818 819 820 822 825 839 845 832 822 823 826 837 840 852 848 849 854 854 844 840 847 844 853 862 867 867 866 871 869 876 880 895 887 875 876 868 846 811 806 809 807 808 807 803
816 821 821 821 823 831 845 842 828 819 816 825 833 842 841 845 849 852 847 839 837 844 845 853 858 868 865 869 871 878 879 889 892 898 891 891 861 827 815 802 801 803 804 804 802
815 825 820 821 835 848 842 832 819 816 815 817 824 827 838 842 848 850 846 839 835 839 847 848 865 870 863 864 864 865 869 877 895 880 909 925 871 812 813 810 807 806 803 801 800
819 823 820 820 836 841 834 826 820 818 818 821 823 820 824 836 839 844 841 836 837 839 844 848 862 871 860 865 864 863 866 870 884 893 896 896 849 811 811 810 807 806 801 798 794
818 827 825 824 830 828 828 824 821 814 814 815 818 820 825 831 836 833 836 837 836 836 838 839 858 852 862 844 854 860 862 868 863 895 875 860 815 808 801 804 801 801 798 794 790
815 818 818 829 827 825 823 820 822 820 817 816 819 820 825 834 833 837 835 839 839 838 842 846 852 855 846 843 848 845 847 863 866 845 847 808 831 798 800 800 797 793 792 791 787
813 816 820 822 820 823 825 821 819 816 819 819 821 818 823 826 823 831 833 838 834 844 843 853 851 855 848 840 851 851 828 838 843 835 840 822 816 777 788 792 793 791 790 787 783
806 806 808 821 824 825 823 814 816 812 808 807 812 816 825 820 815 814 818 822 824 835 845 851 855 863 858 846 842 849 818 814 828 826 813 819 788 777 783 788 783 781 781 779 778